Location: Lafig�re
(44.4503°N, 4.0357°E)
Time: 16:22:38
(UTC+00:00)

deb Explorer IX - Pass Details

Date: 24 January 2021
Orbit: 537 x 1102 km, 38.8° (Epoch: 04 March)

Event Time Altitude Azimuth Distance (km) Brightness Sun altitude
Rises 18:04:59 0° 244° (WSW) 3,694 ? -14.7°
Reaches altitude 10° 18:07:55 10° 238° (WSW) 2,664 ? -15.3°
Maximum altitude 18:13:51 42° 169° (S) 1,190 ? -16.3°
Enters shadow 18:16:58 22° 112° (ESE) 1,665 ? -16.8°
Drops below altitude 10° 18:18:58 10° 100° (E) 2,291 - -17.2°
Sets 18:21:19 0° 93° (E) 3,127 - -17.6°
